Other Surface Observations
Issued by NWS Tucson, AZ

Home | Current Version | Previous Version | Text Only | Print | Product List | Glossary On
Versions: 1 2 3 4 5 6 7 8 9 10 11 12 13 14 15 16 17 18 19 20 21 22 23 24 25 26 27 28 29 30 31 32 33 34 35 36 37 38 39 40 41 42 43 44 45 46 47 48 49 50
000
SXUS55 KTWC 282115
OSOTWC

WEATHER ROUNDUP FOR SOUTHEAST ARIZONA
NATIONAL WEATHER SERVICE TUCSON AZ
215 PM MST SAT FEB 28 2015

AZZ504>506-514-282215-
LOCATION       SKY/WX    TMP DP  RH WIND       PRES   REMARKS
TUCSON         PTSUNNY   69  43  38 W13       29.88F
DAVIS-MONTHAN  MOSUNNY   68  43  40 W14       29.86F
CHILDRENS PARK N/A       65  43  44 NE11              PIMA CO DEQ
ALVERNON/22ND  N/A      N/A N/A N/A N/A               PIMA CO DEQ
CHERRY/GLENN   N/A      N/A N/A N/A N/A               PIMA CO DEQ
TANGERINE      N/A       65 N/A N/A SW15              PIMA CO DEQ
CONTL RANCH    N/A       70  43  38 SW12              PIMA CO DEQ
GRANT/1ST      N/A       66  43  44 S6                PIMA CO DEQ
CRAYCROFT/22ND N/A      N/A N/A N/A N/A               PIMA CO DEQ
GOLFLINKS/KOLB N/A       66  44  45 SW11              PIMA CO DEQ
AJO/12TH       N/A       67  44  43 SW9               PIMA CO DEQ
SAGUARO EAST   N/A      N/A N/A N/A N/A               PIMA CO DEQ
FAIRGROUNDS    N/A       66 N/A N/A SW18              PIMA CO DEQ
SAGUARO        N/A       67  44  44 W7G16             *SABINO CYN
SAN CARLOS     N/A       61  42  50 SW10G16           *SAN CARLOS
GREEN VALLEY   N/A       68  42  39 SW18              PIMA CO DEQ
HORSE CAMP CYN N/A       59  39  48 W24G39            *ARAVAIPA CYN
RINCON MTNS    N/A       40  40  100 SW6G20           *NR MANNING CAMP
$$

AZZ509>511-282215-
LOCATION       SKY/WX    TMP DP  RH WIND       PRES   REMARKS
SAFFORD        CLOUDY    66  38  35 N14       29.82F
STRAY HORSE    N/A       35  34  95 W14G25            *
TRAIL CABIN    N/A       48  34  58 SW7G14            *N OF GRANVILLE
BLACK HILLS    N/A       63  41  44 NW10G14           *N OF FT THOMAS
DRY LAKE       N/A       39  38  98 SW6G14            *NATANES MTNS
NOON CREEK     N/A       62  37  39 SW9G23            *PINALENO MTNS
COLUMBINE      N/A       32  31  96 S9G17             *PINALENO MTNS
GUTHRIE        N/A       52  36  54 SW27G44           *SW OF GUTHRIE
$$

AZZ502-503-513-282215-
LOCATION       SKY/WX    TMP DP  RH WIND       PRES   REMARKS
NOGALES        CLOUDY    67  41  38 SW21G32   29.92F
SELLS          N/A       65  45  49 SW15G26           *
SASABE         N/A       65  44  46 SW20G31           *ALTAR VLY
HOPKINS        N/A       46  37  72 W12G22            *SANTA RITA MTNS
CARR CYN       N/A       62  39  42 W5G17             *W OF HEREFORD
$$

AZZ507-508-512-282215-
LOCATION       SKY/WX    TMP DP  RH WIND       PRES   REMARKS
SIERRA VISTA   SUNNY     66  37  34 SW25G35   29.91F
DOUGLAS        SUNNY     64  36  35 SW25G32   29.90F
EMPIRE MTNS    N/A       62  39  42 SW23G36           *LAS CIENEGAS NCA
MULESHOE RANCH N/A       61  42  49 W7G20             *PRESERVE
HEADQUARTERS   N/A       59  36  42 S8G23             *CHIRICAHUA MTNS
$$

.............................NOTES.............................
THIS IS AN AUTOMATED COLLECTIVE WITH MINIMAL QUALITY CONTROL.
PIMA CO DEQ SITES HAVE NONSTANDARD WIND SENSOR HEIGHTS.
PIMA CO DEQ SITES DO NOT REPORT WIND GUSTS.
* INDICATES WIND SENSORS LOCATED AT 20 FEET INSTEAD OF 33 FEET.
..............................KEY..............................
SKY/WX - SKY CONDITION/WEATHER
TMP    - TEMPERATURE IN FAHRENHEIT
DP     - DEWPOINT IN FAHRENHEIT
RH     - RELATIVE HUMIDITY IN PERCENT
WIND   - DIRECTION AND SPEED IN MILES PER HOUR (MPH)
VRB    - VARIABLE WIND DIRECTION
PRES   - MEAN SEA LEVEL PRESSURE IN INCHES OF MERCURY
         F - FALLING PRESSURE   R - RISING PRESSURE
         S - STEADY PRESSURE
VSB    - VISIBILITY IN MILES
HX     - HEAT INDEX IN FAHRENHEIT
WCI    - WIND CHILL INDEX IN FAHRENHEIT
N/A    - NOT AVAILABLE
AFB    - AIR FORCE BASE
         DAVIS-MONTHAN IS DAVIS-MONTHAN AIR FORCE BASE
CYN    - CANYON
MTNS   - MOUNTAINS
NCA    - NATIONAL CONSERVATION AREA
NR     - NEAR
VLY    - VALLEY
CONTL  - CONTINENTAL
PIMA CO DEQ - PIMA COUNTY DEPT OF ENVIRONMENTAL QUALITY



USA.gov is the U.S. government's official web portal to all federal, state and local government web resources and services.